Location: ??
(35.4824°N, 139.4679°E)
Time: 07:27:55
(UTC+00:00)

FENGYUN 3A - Pass Details

Date: 29 October 2020
Orbit: 824 x 836 km, 98.4° (Epoch: 02 December)

Event Time Altitude Azimuth Distance (km) Brightness Sun altitude
Rises 19:21:07 0° 11° (N) 3,391 7.0 -21.0°
Reaches altitude 10° 19:23:29 10° 10° (N) 2,453 6.2 -20.5°
Maximum altitude 19:28:55 79° 285° (WNW) 854 3.5 -19.4°
Drops below altitude 10° 19:34:19 10° 199° (SSW) 2,435 5.9 -18.3°
Sets 19:36:40 0° 198° (SSW) 3,364 6.7 -17.9°
